Theta_e
313 312 325 333 331 327 327 330 331 336 339 336 334 333 332 332 334 338 336 336 334 325 324 322 320 320 320 318 317 317 318 318 319 319 319 318 316 314 314 315 317 317 317 318 316 314 312 311 313
312 324 330 332 332 333 329 327 328 337 338 336 334 334 332 332 336 337 337 335 334 326 324 323 321 320 319 319 318 318 319 320 320 320 321 320 318 315 316 318 321 322 323 324 320 317 323 319 314
313 328 327 329 332 328 330 332 335 337 337 336 335 333 332 333 336 337 335 334 333 330 324 322 321 320 320 319 319 318 319 320 320 321 321 321 321 318 316 318 324 325 325 325 324 322 326 323 321
322 326 327 331 334 334 332 331 336 337 336 336 336 332 332 332 334 336 336 334 333 332 327 322 320 320 320 320 319 318 319 320 320 321 321 321 322 322 319 317 320 327 328 328 328 331 329 328 325
328 328 326 328 330 332 332 333 336 337 336 336 335 332 332 332 333 335 335 335 334 333 333 324 321 320 320 320 319 319 319 320 320 321 321 321 322 322 322 318 318 321 332 331 328 327 329 330 329
326 329 327 329 330 330 330 331 336 336 336 335 333 332 332 331 331 331 333 335 335 334 333 333 327 320 319 320 320 319 319 320 320 320 321 321 321 322 322 321 318 320 324 326 323 323 323 327 328
329 326 326 326 328 329 330 332 332 332 330 332 332 331 331 332 331 332 332 332 334 334 334 334 333 332 323 319 320 320 319 320 320 321 321 321 321 322 322 322 322 329 330 323 321 321 320 324 328
330 326 326 326 328 329 330 331 331 330 330 333 333 332 332 332 333 333 332 333 333 335 334 334 334 333 333 326 319 321 320 319 320 321 322 322 322 322 322 323 325 330 332 331 331 328 322 320 320
331 327 324 325 327 328 330 329 331 331 331 332 332 332 331 332 333 332 332 332 333 335 335 334 334 334 334 333 326 320 320 320 320 321 322 322 322 322 321 326 326 333 331 332 332 329 327 323 320
332 327 326 325 326 328 329 330 331 331 332 332 332 332 331 331 331 331 330 331 331 330 334 335 335 335 335 335 334 323 320 320 320 321 321 322 323 323 326 327 331 332 332 331 331 330 326 326 328
330 329 326 326 327 328 329 331 332 332 331 332 332 331 332 332 331 331 331 330 330 329 329 332 335 335 335 335 335 330 321 321 320 321 321 322 323 325 332 331 335 334 332 332 331 330 330 328 328
328 329 328 327 328 328 329 331 332 331 331 332 332 332 332 332 332 331 332 331 331 330 328 328 330 334 335 336 335 334 334 325 322 322 323 321 325 331 333 333 331 333 333 332 331 330 329 329 328
324 325 327 330 330 329 330 331 331 331 331 331 331 331 332 332 332 332 332 331 331 330 328 328 328 328 334 336 336 335 336 336 336 336 334 329 333 334 335 330 335 334 333 332 331 330 330 329 329
324 326 327 327 327 328 329 329 330 330 331 330 330 329 330 330 331 332 332 331 330 328 328 328 326 326 329 334 336 336 336 337 338 338 338 336 337 335 331 335 336 335 334 332 332 332 331 330 329
320 321 322 324 326 326 327 327 328 329 329 330 330 330 330 330 331 332 331 331 328 328 328 328 326 327 330 335 337 337 338 339 339 341 339 337 334 333 332 331 332 333 334 332 331 332 331 331 328
321 321 322 322 324 327 327 328 328 329 329 329 330 329 329 329 329 330 331 328 327 328 328 328 327 329 334 337 337 341 340 340 341 339 336 333 333 332 332 333 330 332 332 332 333 330 329 330 329
319 321 321 323 324 326 327 327 327 328 329 329 329 329 329 330 329 328 329 327 327 327 330 328 329 329 333 336 337 338 338 341 339 335 333 333 333 333 334 334 332 331 332 333 330 329 329 328 327
320 321 322 322 324 325 326 326 326 327 327 328 328 329 329 330 329 328 328 328 327 328 329 330 332 331 334 336 339 338 338 340 339 334 333 333 333 334 334 334 332 332 332 331 329 328 328 327 327
319 322 322 323 323 324 324 324 324 326 326 326 327 328 330 329 328 328 328 328 328 331 330 331 333 334 336 339 340 340 340 339 336 334 332 333 334 334 334 333 331 332 330 329 328 327 327 329 327
317 317 318 321 323 323 323 324 325 326 325 326 327 329 330 330 329 328 328 327 331 332 331 332 333 336 338 340 341 339 339 340 336 333 333 333 334 334 332 332 332 330 330 328 327 327 327 327 327
316 317 316 317 320 321 321 321 321 323 326 327 329 329 330 330 329 328 328 329 332 331 332 332 334 338 339 340 340 336 335 335 334 334 335 334 334 332 332 330 331 330 328 327 325 326 326 326 326
316 317 318 319 320 320 320 320 321 323 325 326 328 329 330 330 330 329 328 330 333 333 333 333 334 337 337 338 336 336 336 336 336 336 334 333 331 333 332 331 330 327 327 326 325 326 326 326 326
317 318 317 319 318 318 319 320 322 324 325 326 326 327 328 329 328 329 328 333 334 335 334 334 334 336 337 335 335 337 335 334 334 334 334 333 333 332 332 331 330 327 327 325 326 325 325 325 325
315 317 317 317 317 317 318 320 321 321 323 324 324 327 327 326 327 330 334 335 337 336 335 336 334 335 336 337 335 335 334 333 332 333 333 332 332 332 330 329 328 328 326 326 325 325 325 325 325
313 313 314 317 317 318 318 320 322 322 323 324 324 326 326 327 329 336 337 337 337 336 337 335 332 335 336 335 336 335 335 331 334 334 332 331 332 330 328 329 329 328 325 325 325 326 326 326 327
310 313 315 318 319 318 319 321 320 322 324 324 325 325 326 328 334 337 337 337 337 338 337 334 335 337 335 336 336 334 332 327 328 332 332 331 329 330 328 328 327 326 325 325 326 327 326 326 326
309 310 315 315 318 318 319 320 320 320 321 323 323 326 335 334 338 338 338 338 337 338 336 333 336 336 333 334 333 330 330 335 334 332 331 330 327 328 328 327 327 326 326 327 327 326 325 324 324
315 312 315 315 317 320 320 320 320 321 323 323 326 326 337 338 338 338 338 338 338 337 336 336 337 336 335 334 333 331 332 331 331 331 330 329 329 330 329 328 326 327 328 329 328 325 325 325 325
314 311 311 314 316 319 321 320 320 328 328 325 326 328 337 337 337 337 337 338 337 337 337 338 338 336 334 333 331 332 331 330 331 330 332 330 331 329 330 327 327 327 329 328 327 326 325 325 326
315 313 311 314 317 318 319 320 321 324 327 326 326 329 336 337 337 337 337 337 337 336 337 337 337 334 333 331 333 331 331 331 331 331 330 330 330 329 329 328 327 327 327 328 327 327 327 327 327
Wind_Speed
2 4 5 1 2 2 4 7 9 8 9 18 10 9 3 10 6 5 15 20 13 13 12 10 10 11 12 12 11 11 11 9 6 4 4 5 6 7 7 5 3 4 4 5 7 7 5 6 6
6 7 2 1 2 1 5 8 4 6 7 18 12 3 5 6 22 20 24 14 15 13 12 9 11 13 13 14 13 13 12 9 8 5 3 3 5 7 7 6 4 4 4 6 6 5 6 7 7
11 5 2 3 4 5 4 2 4 5 2 6 15 2 6 11 21 22 21 18 13 13 12 11 11 13 14 15 15 15 14 11 9 5 2 1 4 6 6 6 5 5 5 6 7 9 9 8 9
7 2 5 2 8 12 11 18 3 3 11 20 34 1 10 15 10 17 19 19 12 11 12 13 14 14 16 17 17 17 16 13 11 7 5 3 4 7 8 7 6 7 7 7 7 8 10 9 9
6 4 3 5 8 13 17 23 20 5 5 15 36 7 11 15 18 16 12 13 15 10 11 15 15 16 18 20 19 19 18 16 14 11 8 6 6 8 10 10 8 8 9 10 11 12 13 14 11
4 5 3 7 12 17 17 26 19 13 19 11 3 12 9 14 11 7 11 12 13 16 14 16 16 16 19 21 22 21 20 18 16 15 12 11 9 10 13 13 12 10 10 13 13 13 13 16 15
3 2 6 9 15 18 15 23 8 9 10 12 9 5 16 20 12 12 9 9 15 20 22 22 22 19 20 23 24 24 23 21 19 19 16 15 13 13 14 14 11 8 9 10 11 12 14 15 15
8 2 5 8 12 18 18 23 19 5 13 7 8 1 9 18 12 6 4 12 15 25 28 27 26 22 23 26 28 28 27 25 23 22 20 19 16 15 15 15 9 8 10 9 9 11 13 14 14
18 3 8 10 10 14 26 15 32 20 4 10 6 10 9 2 10 10 4 9 16 24 29 30 29 25 25 26 30 31 30 29 27 26 24 23 20 17 15 13 9 9 13 13 13 14 14 13 14
14 8 15 14 12 13 23 25 26 23 5 10 15 13 12 20 10 10 12 10 14 18 27 31 30 30 28 27 27 34 32 33 32 31 29 26 22 19 16 13 8 11 14 13 13 12 6 6 9
24 19 17 19 25 27 26 23 24 28 13 9 2 16 13 24 21 10 7 12 15 18 21 20 29 31 33 31 27 30 34 35 33 33 32 28 23 20 16 12 13 14 13 14 12 11 8 4 4
21 28 26 26 31 31 22 29 24 29 25 16 14 29 24 27 23 24 29 26 24 27 24 24 21 26 34 36 34 29 28 32 32 32 34 32 26 21 15 16 19 15 15 17 13 12 10 9 7
24 19 29 33 34 35 35 29 25 30 40 37 34 27 27 27 32 30 26 19 25 27 20 21 22 24 31 38 40 32 29 27 23 23 23 24 23 18 18 16 17 18 18 18 17 15 15 14 11
18 22 27 29 31 33 28 28 33 35 34 33 37 42 40 34 32 32 26 26 26 18 18 25 26 27 29 37 41 34 30 26 23 21 20 19 18 18 18 16 17 18 19 18 17 18 18 18 17
27 20 21 27 27 23 32 29 28 29 32 35 35 40 38 28 32 37 32 31 15 16 23 28 25 24 23 33 37 32 27 25 22 19 17 17 18 19 19 17 21 21 19 20 19 20 23 23 21
18 16 21 21 21 29 22 34 15 33 32 33 33 37 35 32 34 30 27 16 14 17 26 27 21 18 17 28 37 31 26 25 21 23 23 19 18 21 20 19 17 19 23 21 20 20 22 22 20
12 21 23 24 24 16 13 28 20 32 33 37 37 39 40 38 35 32 22 19 17 21 24 22 18 18 18 24 36 39 33 26 25 21 18 17 17 18 20 17 13 19 20 20 20 18 19 19 21
11 21 25 26 13 17 20 27 28 39 33 33 38 38 39 43 32 21 27 25 23 24 20 19 19 20 21 26 31 35 33 26 25 21 15 16 17 18 17 15 18 17 20 19 17 18 16 18 16
18 22 18 17 18 16 18 25 26 22 19 22 30 28 25 19 22 22 33 27 24 18 21 20 21 22 24 28 27 27 26 22 15 16 18 17 17 17 17 21 19 19 18 18 16 15 15 14 15
23 24 21 14 12 17 21 20 25 21 18 34 34 30 32 34 31 27 22 24 22 22 20 19 19 22 26 25 21 15 15 20 16 15 18 17 20 22 19 20 18 16 16 13 11 12 12 13 14
26 26 18 21 12 19 11 12 19 16 19 24 26 31 23 23 27 29 28 21 23 22 19 15 18 23 22 19 14 11 13 12 15 14 18 22 20 17 18 14 16 16 14 10 10 9 11 11 13
24 13 21 18 12 20 5 14 19 16 20 16 20 25 25 25 25 27 24 22 23 20 15 14 17 20 19 16 15 17 19 16 15 17 14 19 17 16 14 11 13 12 9 9 9 9 10 12 14
23 15 18 12 17 16 16 6 27 8 12 9 10 28 35 37 40 29 26 23 23 17 13 14 16 16 17 16 22 16 17 13 9 9 12 12 12 13 13 13 12 10 9 8 8 9 9 9 9
17 17 18 15 12 14 17 12 31 18 20 7 9 27 29 31 28 20 22 26 21 15 13 15 17 19 22 19 18 13 16 11 13 12 10 9 12 14 12 11 10 9 8 7 7 6 4 5 7
13 13 8 8 11 17 12 10 22 5 14 20 15 25 31 25 15 23 30 27 22 18 18 17 22 26 22 21 16 14 15 16 13 12 12 11 12 8 7 10 12 7 6 6 8 4 4 7 8
13 13 10 14 11 16 7 15 12 13 18 27 33 33 32 22 20 34 34 29 23 21 19 23 26 21 22 22 16 14 15 10 8 8 9 10 6 4 4 9 8 6 5 7 5 4 5 5 4
21 18 13 17 15 6 6 19 23 26 26 19 18 18 13 12 33 37 32 28 26 23 21 27 23 19 20 15 11 9 9 7 8 7 8 7 4 3 4 7 6 5 9 5 3 4 3 4 6
14 11 8 9 18 16 8 14 12 16 16 19 9 12 26 36 35 32 29 28 26 22 24 23 20 19 18 13 10 10 7 5 6 6 4 4 5 5 4 5 6 8 9 6 3 4 2 3 5
7 17 13 7 11 11 11 12 14 10 8 9 10 18 33 35 39 36 32 30 26 24 24 21 20 19 18 13 12 10 8 5 3 3 4 3 5 6 4 7 10 10 7 5 2 3 5 3 1
18 19 16 9 8 10 6 11 7 11 5 9 11 23 38 40 39 36 36 33 28 27 26 24 21 20 17 12 13 9 6 2 3 4 5 4 7 8 11 9 7 9 7 3 3 5 2 1 2
Wind_Direction
232 174 161 59 41 98 257 256 233 350 338 335 56 63 60 76 104 151 137 168 167 160 152 153 168 174 175 170 171 172 169 163 154 136 83 43 25 10 2 346 317 286 285 287 292 296 285 278 274
164 156 133 262 121 163 265 231 252 183 241 13 317 134 69 66 112 134 149 176 187 175 164 155 173 182 182 180 180 183 181 176 176 162 127 63 30 13 358 342 313 257 266 286 286 281 303 306 290
164 167 319 185 194 214 244 353 229 141 48 261 316 214 116 114 121 145 155 171 195 186 180 177 179 187 191 190 189 191 192 192 194 190 189 332 8 5 352 337 314 265 257 266 267 274 284 291 294
156 185 253 250 257 271 255 274 8 110 111 302 279 59 64 126 112 145 159 172 194 210 204 196 193 198 200 199 197 199 201 205 210 214 229 270 317 338 336 323 310 289 280 279 273 274 272 279 287
195 258 241 236 248 257 256 260 236 191 168 282 228 153 124 115 120 135 157 176 187 225 233 210 210 209 209 208 206 207 209 213 222 226 235 254 283 307 312 311 304 292 274 281 272 263 264 267 265
235 224 272 242 260 259 272 278 208 206 194 224 136 135 124 131 136 147 154 190 202 202 235 235 222 223 221 219 217 214 217 221 228 235 237 248 267 289 297 307 310 307 277 275 275 267 260 255 259
248 326 234 262 267 284 284 331 311 327 6 57 62 86 138 148 152 160 191 206 222 218 218 234 236 228 233 229 225 225 222 229 232 237 241 247 257 274 286 295 301 308 303 283 280 281 274 264 265
237 253 278 271 276 285 296 313 312 14 341 75 62 58 167 170 187 175 222 232 232 224 217 226 236 239 234 231 228 226 228 229 237 240 243 250 257 268 281 294 278 288 295 288 298 296 289 280 273
227 230 255 250 254 275 297 324 311 328 337 285 39 358 326 261 183 175 213 265 230 228 229 225 232 242 245 233 232 228 227 230 234 240 244 248 256 266 276 277 281 293 296 294 302 301 287 280 279
223 226 235 245 258 276 294 297 303 313 209 233 270 301 290 289 238 271 317 294 286 289 244 238 237 243 241 237 238 233 230 232 234 238 242 248 255 266 266 274 298 292 298 296 298 301 289 279 300
236 238 241 258 258 264 270 279 295 300 303 246 21 278 285 296 272 275 258 290 284 283 288 259 247 245 244 241 241 233 232 235 237 242 246 250 255 259 256 276 271 276 275 278 289 278 265 281 313
243 237 239 250 262 271 272 278 277 282 287 286 256 244 269 289 269 281 276 278 287 281 270 284 271 254 245 243 239 246 234 233 237 242 248 250 252 247 255 256 259 259 257 278 266 273 277 267 252
238 247 241 244 249 255 268 272 270 274 281 287 297 293 286 288 279 285 270 257 273 269 272 279 279 279 248 239 233 239 243 239 237 241 244 237 237 249 260 249 256 263 270 281 273 262 262 260 238
258 254 257 252 244 249 257 265 265 262 265 287 288 286 284 284 289 275 271 257 277 263 283 293 286 283 261 243 232 238 242 245 238 237 235 234 236 248 259 249 248 256 267 271 264 257 248 255 249
262 266 271 262 259 248 255 261 253 271 281 278 272 273 275 281 283 276 288 270 256 274 289 291 283 280 263 242 229 230 229 236 235 232 224 226 232 256 264 262 248 252 259 267 265 256 250 248 244
259 259 255 256 261 254 254 262 273 275 278 276 278 283 278 277 278 288 273 245 271 290 292 283 270 268 245 229 218 207 211 214 214 206 212 222 239 258 267 269 256 250 260 265 266 267 254 250 251
235 239 249 250 237 252 249 274 271 273 266 255 258 265 268 263 263 272 269 258 274 287 283 264 256 256 240 226 219 214 216 212 210 203 213 230 241 258 264 273 278 258 262 270 273 263 254 254 252
217 227 236 246 239 238 244 255 264 264 261 261 266 263 256 250 253 268 278 265 274 270 261 240 240 241 237 225 214 208 220 221 210 214 220 232 247 255 265 263 274 273 279 273 270 271 254 258 244
246 239 252 244 244 263 256 258 268 269 264 268 266 268 249 234 270 280 269 260 260 243 245 235 231 234 231 216 210 206 213 209 203 206 224 238 241 244 251 254 276 276 278 282 273 257 252 236 244
244 260 262 263 246 247 247 257 256 253 253 252 257 261 262 255 254 250 251 264 258 245 232 229 234 230 219 214 209 218 214 210 219 234 228 230 237 251 268 268 265 272 279 275 272 250 241 239 221
232 238 248 256 285 279 286 290 285 283 274 267 256 259 262 250 247 246 257 256 241 227 227 227 224 209 209 209 202 180 174 193 216 217 223 229 243 261 264 275 264 271 271 269 267 255 238 235 227
242 234 238 253 241 254 209 272 264 266 264 266 266 271 272 268 263 249 253 237 227 219 219 226 210 202 206 201 185 172 189 193 192 208 223 239 248 260 272 283 276 266 267 268 282 267 251 240 234
253 225 257 257 246 261 254 269 266 215 254 248 256 256 257 260 262 256 245 219 204 205 213 205 188 181 179 167 172 184 183 194 215 216 231 231 251 274 285 272 255 261 272 278 261 254 242 228 217
263 243 244 257 261 263 249 222 267 242 250 251 243 260 262 258 254 229 187 185 184 190 195 185 172 169 162 173 183 194 194 198 195 200 218 248 271 276 272 253 235 255 272 267 237 221 206 222 230
260 233 248 236 231 239 222 243 235 251 235 239 242 249 258 264 226 172 167 170 175 182 181 167 160 160 165 179 175 185 185 204 206 213 235 255 278 267 244 229 225 247 267 216 207 210 256 246 245
255 235 221 214 217 244 236 241 238 241 261 243 249 250 256 259 180 170 167 168 169 174 168 159 160 164 175 180 184 198 216 205 206 223 250 266 274 257 228 210 223 241 216 193 185 229 216 222 210
251 251 246 250 279 225 234 240 262 258 258 256 245 245 135 147 159 157 160 163 166 166 161 159 163 168 170 176 180 190 174 178 216 246 269 263 254 220 197 209 207 205 170 183 190 187 197 217 216
235 259 249 224 235 253 242 250 256 263 257 236 215 156 133 143 147 152 156 161 162 157 154 159 164 163 160 170 191 167 173 209 243 262 214 197 169 160 163 178 172 164 169 193 209 171 203 215 178
267 238 240 279 220 232 255 257 263 274 202 173 182 166 149 149 151 156 156 161 159 153 159 161 166 160 168 181 170 169 197 209 206 184 177 168 182 156 146 127 139 138 177 198 206 182 194 192 228
285 266 232 228 250 232 243 246 248 270 172 152 188 158 155 152 153 155 158 159 157 159 166 168 169 166 173 177 158 184 184 247 188 153 173 167 158 147 133 134 142 149 169 190 168 168 236 18 3